Change the Weather History Date:

Tuesday, January 22, 2013

  Actual Average Record
Temperature  
Mean Temperature 50 °F -  
Max Temperature 62 °F 60 °F 71 °F (2008)
Min Temperature 39 °F 43 °F 30 °F (2011)
Degree Days  
Heating Degree Days 14    
Moisture  
Dew Point 33 °F    
Average Humidity 56    
Maximum Humidity 87    
Minimum Humidity 22    
Precipitation  
Precipitation 0.12 in - - ()
Sea Level Pressure  
Sea Level Pressure 29.85 in    
Wind  
Wind Speed 7 mph ()    
Max Wind Speed 26 mph    
Max Gust Speed 45 mph    
Visibility 7.0 miles    
Events Rain    
Averages and records for this station are not official NWS values.
T = Trace of Precipitation, MM = Missing Value Source: Averaged Metar Reports

Daily Weather History Graph

Daily Weather History Graph

Search for Another Location

Airport or City:

Trip Planner

Search our weather history database for the weather conditions in past years. The results will help you decide how hot, cold, wet, or windy it might be!

Date:

Astronomy

Jan. 22, 2013 Rise Set
Actual Time 8:14 AM CET 6:13 PM CET
Civil Twilight 7:46 AM CET 6:42 PM CET
Nautical Twilight 7:13 AM CET 7:14 PM CET
Astronomical Twilight 6:42 AM CET 7:45 PM CET
Moon 2:26 PM CET (1/22) 4:22 AM CET (1/22)
Length of Visible Light 10h 56m
Length of Day
9h 59m
Waxing Gibbous, 80% of the Moon is Illuminated
Jan 22
Waxing Gibbous
Jan 27
Full
Feb 3
Last Quarter
Feb 10
New
Feb 17
First Quarter

Hourly Weather History & Observations

Time (CET) Temp. Windchill Dew Point Humidity Pressure Visibility Wind Dir Wind Speed Gust Speed Precip Events Conditions
12:00 AM 46.4 °F 42.9 °F 28.4 °F 50% 29.95 in 6.2 mi WNW 6.9 mph - N/A   Partly Cloudy
12:30 AM 46.4 °F 43.5 °F 28.4 °F 50% 29.95 in 6.2 mi NW 5.8 mph - N/A   Partly Cloudy
1:00 AM 44 °F - 27 °F 39% 29.95 in 16 mi NW 4.6 mph - -  
1:00 AM 46.4 °F 44.3 °F 30.2 °F 53% 29.95 in - NW 4.6 mph - N/A   Clear
1:30 AM 42.8 °F - 30.2 °F 61% 29.95 in - Variable 2.3 mph - N/A   Clear
2:00 AM 44.6 °F - 30.2 °F 57% 29.92 in - Variable 2.3 mph - N/A   Clear
2:30 AM 46.4 °F 42.9 °F 33.8 °F 62% 29.95 in - WSW 6.9 mph - N/A   Clear
3:00 AM 46.4 °F - 33.8 °F 62% 29.95 in - Variable 2.3 mph - N/A   Clear
3:30 AM 44.6 °F - 33.8 °F 66% 29.95 in - Variable 1.2 mph - N/A   Clear
4:00 AM 42.8 °F - 33.8 °F 70% 29.95 in - Variable 1.2 mph - N/A   Clear
4:30 AM 41.0 °F 39.0 °F 32.0 °F 70% 29.92 in - West 3.5 mph - N/A   Clear
5:00 AM 44.6 °F - 32.0 °F 61% 29.92 in - Calm Calm - N/A   Clear
5:30 AM 42.8 °F - 32.0 °F 66% 29.92 in - Variable 1.2 mph - N/A   Clear
6:00 AM 41.0 °F - 32.0 °F 70% 29.92 in - Calm Calm - N/A   Clear
6:30 AM 42.8 °F - 32.0 °F 66% 29.92 in - Variable 1.2 mph - N/A   Clear
7:00 AM 39 °F - 29 °F 58% 29.94 in 16 mi SW 5.8 mph - -  
7:00 AM 39.2 °F 35.9 °F 32.0 °F 75% 29.92 in - SW 4.6 mph - N/A   Clear
7:30 AM 39.2 °F - 32.0 °F 75% 29.92 in - Variable 2.3 mph - N/A   Clear
8:00 AM 41.0 °F 35.8 °F 32.0 °F 70% 29.92 in - WSW 8.1 mph - N/A   Clear
8:30 AM 41.0 °F 35.8 °F 32.0 °F 70% 29.92 in 6.2 mi WSW 8.1 mph - N/A   Partly Cloudy
9:00 AM 42.8 °F 38.6 °F 32.0 °F 66% 29.95 in 6.2 mi WSW 6.9 mph - N/A   Partly Cloudy
9:30 AM 44.6 °F 40.7 °F 33.8 °F 66% 29.95 in 6.2 mi WSW 6.9 mph - N/A   Partly Cloudy
10:00 AM 48.2 °F - 33.8 °F 58% 29.95 in 6.2 mi West 3.5 mph - N/A   Partly Cloudy
10:30 AM 51.8 °F - 32.0 °F 47% 29.95 in 6.2 mi SSW 5.8 mph - N/A   Partly Cloudy
11:00 AM 51.8 °F - 32.0 °F 47% 29.95 in 6.2 mi SW 10.4 mph - N/A   Partly Cloudy
11:30 AM 53.6 °F - 32.0 °F 44% 29.92 in 6.2 mi SW 10.4 mph - N/A   Partly Cloudy
12:00 PM 55.4 °F - 32.0 °F 41% 29.92 in 6.2 mi SW 9.2 mph - N/A   Partly Cloudy
12:30 PM 57.2 °F - 32.0 °F 38% 29.89 in - WSW 12.7 mph - N/A   Clear
1:00 PM 58 °F - 29 °F 22% 29.88 in 22 mi SW 10.4 mph - -   Scattered Clouds
1:00 PM 57.2 °F - 32.0 °F 38% 29.86 in 6.2 mi SW 10.4 mph - N/A   Partly Cloudy
1:30 PM 59.0 °F - 30.2 °F 34% 29.83 in 6.2 mi SW 10.4 mph - N/A   Partly Cloudy
2:00 PM 59.0 °F - 30.2 °F 34% 29.80 in 6.2 mi WSW 12.7 mph 24.2 mph N/A   Partly Cloudy
2:30 PM 60.8 °F - 28.4 °F 29% 29.77 in 6.2 mi WSW 12.7 mph - N/A   Partly Cloudy
3:00 PM 62.6 °F - 30.2 °F 30% 29.74 in 6.2 mi SW 12.7 mph - N/A   Partly Cloudy
3:30 PM 62.6 °F - 30.2 °F 30% 29.74 in 6.2 mi SW 12.7 mph - N/A   Partly Cloudy
4:00 PM 60.8 °F - 39.2 °F 45% 29.71 in 6.2 mi SSW 13.8 mph - N/A   Partly Cloudy
4:30 PM 60.8 °F - 32.0 °F 34% 29.68 in 6.2 mi SSW 15.0 mph - N/A   Partly Cloudy
5:00 PM 57.2 °F - 41.0 °F 55% 29.71 in 6.2 mi SW 12.7 mph 24.2 mph N/A Rain Light Rain
5:30 PM 51.8 °F - 44.6 °F 76% 29.77 in 3.7 mi West 21.9 mph - N/A Rain Rain
5:46 PM 50.0 °F - 46.4 °F 87% 29.77 in 1.6 mi West 15.0 mph - N/A Rain Rain
5:51 PM 50.0 °F - 44.6 °F 82% 29.77 in 6.2 mi West 16.1 mph - N/A Rain Rain
6:00 PM 48.2 °F - 44.6 °F 87% 29.74 in 6.2 mi WSW 11.5 mph - N/A   Scattered Clouds
6:30 PM 50.0 °F - 42.8 °F 76% 29.74 in 6.2 mi WSW 13.8 mph - N/A   Partly Cloudy
7:00 PM 49 °F - 40 °F 62% 29.75 in 19 mi WSW 13.8 mph - -   Partly Cloudy
7:00 PM 50.0 °F - 42.8 °F 76% 29.74 in 6.2 mi WSW 12.7 mph - N/A   Partly Cloudy
7:30 PM 50.0 °F - 35.6 °F 58% 29.74 in 6.2 mi West 12.7 mph 28.8 mph N/A   Partly Cloudy
8:00 PM 50.0 °F - 32.0 °F 50% 29.74 in 6.2 mi West 23.0 mph 35.7 mph N/A   Partly Cloudy
8:30 PM 50.0 °F - 30.2 °F 47% 29.74 in - WNW 26.5 mph 44.9 mph N/A   Clear
9:00 PM 50.0 °F - 30.2 °F 47% 29.77 in - West 21.9 mph 33.4 mph N/A   Clear
9:30 PM 50.0 °F - 30.2 °F 47% 29.77 in - WNW 17.3 mph - N/A   Clear
10:00 PM 48.2 °F - 30.2 °F 50% 29.77 in - West 11.5 mph - N/A   Clear
10:30 PM 48.2 °F - 30.2 °F 50% 29.77 in - WSW 4.6 mph - N/A   Clear
11:00 PM 46.4 °F 43.5 °F 30.2 °F 53% 29.74 in - WSW 5.8 mph - N/A   Clear
11:30 PM 48.2 °F - 30.2 °F 50% 29.77 in - WSW 8.1 mph - N/A   Clear